Tiempo cada hora Abertamy

Hoy, 28 Octubre, Miércoles

Tiempo Temperatura Precipitaciones Viento Presión Humedad
00:00 +2°C° 0 mm 3 mps 681 mmHg 89%
01:00 +1°C° 0 mm 3 mps 681 mmHg 89%
02:00 +1°C° 0 mm 3 mps 681 mmHg 87%
03:00 0°C° 0 mm 4 mps 681 mmHg 86%
04:00 0°C° 0 mm 4 mps 680 mmHg 84%
05:00 +1°C° 0 mm 4 mps 681 mmHg 81%
06:00 +1°C° 0 mm 4 mps 681 mmHg 77%
07:00 +3°C° 0 mm 4 mps 681 mmHg 73%
08:00 +3°C° 0 mm 4 mps 682 mmHg 75%
09:00 +4°C° 0 mm 4 mps 682 mmHg 78%
10:00 +4°C° 0 mm 4 mps 682 mmHg 80%
11:00 +5°C° 0 mm 4 mps 682 mmHg 81%
12:00 +5°C° 0 mm 4 mps 682 mmHg 81%
13:00 +5°C° 0 mm 4 mps 682 mmHg 82%
14:00 +5°C° 0 mm 4 mps 682 mmHg 83%
15:00 +5°C° 0 mm 3 mps 683 mmHg 84%
16:00 +7°C° 0 mm 3 mps 683 mmHg 85%
17:00 +5°C° 0.2 mm 3 mps 683 mmHg 87%
18:00 +5°C° 0.2 mm 3 mps 683 mmHg 90%
19:00 +4°C° 0.2 mm 3 mps 683 mmHg 92%
20:00 +4°C° 0 mm 3 mps 683 mmHg 91%
21:00 +4°C° 0 mm 3 mps 684 mmHg 90%
22:00 +3°C° 0 mm 3 mps 684 mmHg 88%
23:00 +4°C° 0 mm 4 mps 684 mmHg 88%

Mañana, 29 Octubre, Jueves

Tiempo Temperatura Precipitaciones Viento Presión Humedad
00:00 +4°C° 0 mm 4 mps 683 mmHg 88%
01:00 +4°C° 0 mm 4 mps 683 mmHg 88%
02:00 +4°C° 0.2 mm 4 mps 683 mmHg 89%
03:00 +4°C° 0.2 mm 4 mps 683 mmHg 89%
04:00 +4°C° 0.2 mm 4 mps 683 mmHg 90%
05:00 +4°C° 0.6 mm 4 mps 683 mmHg 90%
06:00 +4°C° 0.6 mm 4 mps 683 mmHg 91%
07:00 +5°C° 0.6 mm 4 mps 683 mmHg 91%
08:00 +4°C° 1 mm 4 mps 683 mmHg 91%
09:00 +3°C° 1 mm 5 mps 683 mmHg 91%
10:00 +3°C° 1 mm 5 mps 684 mmHg 90%
11:00 +4°C° 0.6 mm 6 mps 684 mmHg 85%
12:00 +4°C° 0.6 mm 6 mps 684 mmHg 79%
13:00 +5°C° 0.6 mm 6 mps 685 mmHg 73%
14:00 +4°C° 0.2 mm 6 mps 685 mmHg 74%
15:00 +5°C° 0.2 mm 5 mps 685 mmHg 75%
16:00 +4°C° 0.2 mm 4 mps 686 mmHg 76%
17:00 +3°C° 0 mm 4 mps 686 mmHg 79%
18:00 +3°C° 0 mm 4 mps 686 mmHg 82%
19:00 +2°C° 0 mm 3 mps 687 mmHg 85%
20:00 +2°C° 0 mm 3 mps 687 mmHg 87%
21:00 +2°C° 0 mm 3 mps 687 mmHg 90%
22:00 +3°C° 0 mm 2 mps 687 mmHg 92%
23:00 +3°C° 0.4 mm 2 mps 687 mmHg 93%

Pasado mañana, 30 Octubre, Viernes

Tiempo Temperatura Precipitaciones Viento Presión Humedad
00:00 +4°C° 0.4 mm 2 mps 687 mmHg 94%
01:00 +5°C° 0.4 mm 2 mps 687 mmHg 95%
02:00 +4°C° 0.4 mm 3 mps 687 mmHg 95%
03:00 +4°C° 0.4 mm 3 mps 687 mmHg 95%
04:00 +5°C° 0.4 mm 4 mps 687 mmHg 94%
05:00 +5°C° 0.7 mm 4 mps 687 mmHg 94%
06:00 +6°C° 0.7 mm 4 mps 687 mmHg 94%
07:00 +6°C° 0.7 mm 5 mps 687 mmHg 94%
08:00 +6°C° 0 mm 5 mps 687 mmHg 92%
09:00 +7°C° 0 mm 5 mps 687 mmHg 90%
10:00 +7°C° 0 mm 6 mps 688 mmHg 88%
11:00 +7°C° 0.2 mm 5 mps 688 mmHg 88%
12:00 +7°C° 0.2 mm 5 mps 688 mmHg 88%
13:00 +7°C° 0.2 mm 5 mps 688 mmHg 89%
14:00 +7°C° 0.1 mm 5 mps 688 mmHg 89%
15:00 +7°C° 0.1 mm 5 mps 688 mmHg 89%
16:00 +7°C° 0.1 mm 5 mps 688 mmHg 89%
17:00 +7°C° 0.3 mm 5 mps 688 mmHg 90%
18:00 +7°C° 0.3 mm 5 mps 689 mmHg 91%
19:00 +7°C° 0.3 mm 5 mps 689 mmHg 93%
20:00 +7°C° 0.4 mm 5 mps 689 mmHg 93%
21:00 +7°C° 0.4 mm 5 mps 689 mmHg 94%
22:00 +7°C° 0.4 mm 4 mps 690 mmHg 94%
23:00 +7°C° 0.3 mm 4 mps 690 mmHg 95%

31 Octubre, Sábado

Tiempo Temperatura Precipitaciones Viento Presión Humedad
00:00 +7°C° 0.3 mm 4 mps 690 mmHg 95%
01:00 +8°C° 0.3 mm 3 mps 690 mmHg 95%
02:00 +8°C° 0 mm 3 mps 690 mmHg 95%
03:00 +8°C° 0 mm 2 mps 690 mmHg 96%
04:00 +8°C° 0 mm 2 mps 690 mmHg 96%
05:00 +8°C° 0 mm 2 mps 690 mmHg 96%
06:00 +8°C° 0 mm 1 mps 690 mmHg 96%
07:00 +8°C° 0 mm 1 mps 690 mmHg 97%
08:00 +9°C° 0 mm 1 mps 690 mmHg 94%
09:00 +10°C° 0 mm 1 mps 691 mmHg 91%
10:00 +10°C° 0 mm 0 mps 691 mmHg 88%
11:00 +12°C° 0 mm 1 mps 691 mmHg 86%
12:00 +12°C° 0 mm 1 mps 691 mmHg 83%
13:00 +13°C° 0 mm 1 mps 691 mmHg 80%
14:00 +12°C° 0 mm 1 mps 690 mmHg 83%
15:00 +12°C° 0 mm 1 mps 690 mmHg 85%
16:00 +12°C° 0 mm 1 mps 690 mmHg 88%
17:00 +11°C° 0 mm 1 mps 689 mmHg 90%
18:00 +9°C° 0 mm 2 mps 689 mmHg 92%
19:00 +8°C° 0 mm 2 mps 689 mmHg 94%
20:00 +8°C° 0 mm 2 mps 689 mmHg 95%
21:00 +8°C° 0 mm 2 mps 688 mmHg 95%
22:00 +7°C° 0 mm 2 mps 688 mmHg 96%
23:00 +7°C° 0 mm 2 mps 688 mmHg 96%

1 Noviembre, Domingo

Tiempo Temperatura Precipitaciones Viento Presión Humedad
00:00 +7°C° 0 mm 2 mps 688 mmHg 96%
01:00 +7°C° 0 mm 2 mps 688 mmHg 96%
02:00 +7°C° 0 mm 2 mps 688 mmHg 96%
03:00 +8°C° 0 mm 1 mps 687 mmHg 96%
04:00 +7°C° 0 mm 1 mps 687 mmHg 96%
05:00 +6°C° 0 mm 2 mps 687 mmHg 96%
06:00 +6°C° 0 mm 2 mps 687 mmHg 96%
07:00 +6°C° 0 mm 2 mps 687 mmHg 96%
08:00 +7°C° 0 mm 2 mps 687 mmHg 93%
09:00 +8°C° 0 mm 2 mps 688 mmHg 91%
10:00 +9°C° 0 mm 2 mps 688 mmHg 88%
11:00 +10°C° 0 mm 2 mps 688 mmHg 83%
12:00 +10°C° 0 mm 2 mps 688 mmHg 78%
13:00 +12°C° 0 mm 2 mps 688 mmHg 73%
14:00 +12°C° 0 mm 2 mps 688 mmHg 75%
15:00 +10°C° 0 mm 2 mps 687 mmHg 77%
16:00 +10°C° 0 mm 2 mps 687 mmHg 80%
17:00 +9°C° 0 mm 2 mps 687 mmHg 81%
18:00 +8°C° 0 mm 2 mps 687 mmHg 83%
19:00 +8°C° 0 mm 2 mps 687 mmHg 85%
20:00 +8°C° 0 mm 2 mps 687 mmHg 84%
21:00 +8°C° 0 mm 2 mps 687 mmHg 83%
22:00 +8°C° 0 mm 2 mps 687 mmHg 82%
23:00 +8°C° 0 mm 2 mps 687 mmHg 82%

2 Noviembre, Lunes

Tiempo Temperatura Precipitaciones Viento Presión Humedad
00:00 +8°C° 0 mm 2 mps 687 mmHg 82%
01:00 +8°C° 0 mm 2 mps 687 mmHg 82%
02:00 +8°C° 0 mm 2 mps 686 mmHg 83%
03:00 +7°C° 0 mm 2 mps 686 mmHg 84%
04:00 +7°C° 0 mm 2 mps 686 mmHg 85%
05:00 +7°C° 0 mm 2 mps 686 mmHg 85%
06:00 +7°C° 0 mm 2 mps 686 mmHg 85%
07:00 +7°C° 0 mm 2 mps 686 mmHg 85%
08:00 +8°C° 0 mm 2 mps 687 mmHg 82%
09:00 +9°C° 0 mm 2 mps 687 mmHg 79%
10:00 +10°C° 0 mm 2 mps 687 mmHg 76%
11:00 +12°C° 0 mm 2 mps 687 mmHg 74%
12:00 +13°C° 0 mm 2 mps 687 mmHg 71%
13:00 +14°C° 0 mm 2 mps 687 mmHg 69%
14:00 +13°C° 0 mm 2 mps 687 mmHg 72%
15:00 +13°C° 0 mm 2 mps 687 mmHg 74%
16:00 +12°C° 0 mm 2 mps 687 mmHg 76%
17:00 +10°C° 0 mm 2 mps 687 mmHg 77%
18:00 +10°C° 0 mm 2 mps 687 mmHg 79%
19:00 +9°C° 0 mm 2 mps 687 mmHg 80%
20:00 +8°C° 0 mm 2 mps 687 mmHg 81%
21:00 +8°C° 0 mm 2 mps 687 mmHg 83%
22:00 +8°C° 0 mm 2 mps 687 mmHg 84%
23:00 +8°C° 0 mm 2 mps 687 mmHg 84%
Mostrar más

Necesitamos Su Consentimiento

Meteoprog y nuestros Proveedores de Servicios pueden almacenar y acceder a sus datos personales como cookies, identificadores de dispositivo u otras tecnologías similares de su dispositivo y procesar dichos datos para personalizar contenido y anuncios, además de ofrecer funciones de redes sociales y analizar el tráfico.

  • Almacenar y/o acceder a información en su dispositivo

    Se puede almacenar o acceder a cookies, identificadores de dispositivo u otra información de su dispositivo para los fines anteriormente indicados.

  • Anuncios y contenido personalizados, medición de anuncios y contenido, percepciones del público, y desarrollo de productos

    Los anuncios y el contenido pueden personalizarse en base a su perfil. Se pueden añadir más datos para personalizar mejor los anuncios y contenidos. Se puede medir el rendimiento de los anuncios y contenidos. Se puede obtener la percepción sobre el público que ha visto los anuncios y contenidos. Dichos datos pueden usarse para desarrollar o mejorar la experiencia del usuario, sistemas y software.

Al hacer clic en ‘Estoy De Acuerdo’ usted permitirá el uso de las cookies, identificadores de dispositivo, balizas web u otras tecnologías similares indicadas. Su configuración puede cambiarse desde el navegador de su dispositivo.

Para ciertos fines, los intereses legítimos pueden ser considerados por encima del consentimiento. Puede leer más sobre ello en nuestra Política de Privacidad y Cookies.